Wind_Speed
7 7 8 8 9 11 12 13 14 16 19 23 28 33 37 41 44 48 51 55 59 62 65 68 71 74 76 77 77 76 75 75 75 76 77 76 75 74 73 72 72 72 72 72
6 6 7 9 10 12 14 15 17 19 22 27 31 36 41 44 48 52 56 60 63 67 71 74 78 81 83 85 86 85 83 81 79 79 80 81 81 81 80 79 78 77 77 77
7 8 10 11 13 13 15 17 21 25 27 30 36 42 46 50 54 58 61 64 68 72 77 81 84 86 88 89 90 91 90 89 86 84 84 84 85 86 86 86 86 85 84 83
10 11 12 13 14 16 18 21 24 29 32 36 42 48 51 55 59 62 65 69 74 79 83 85 87 87 87 87 87 85 84 83 83 83 84 84 85 85 87 87 87 88 89 89
13 14 14 14 15 18 21 25 28 32 37 41 46 52 56 59 63 67 71 75 79 82 84 85 84 83 81 79 75 71 68 66 65 64 65 66 68 71 73 75 77 79 81 84
16 17 17 17 19 21 25 29 33 36 40 45 50 55 60 63 68 72 76 78 80 81 81 80 78 74 69 63 59 57 55 54 52 51 50 48 46 45 44 46 49 54 59 64
18 18 19 20 22 25 29 32 36 40 44 48 53 58 63 68 73 76 77 79 79 77 75 72 67 60 55 53 51 50 49 48 47 45 43 41 38 34 30 27 26 29 33 37
20 20 21 22 25 30 33 36 38 42 46 51 56 60 66 72 74 77 78 77 74 71 68 63 58 53 50 48 47 47 47 46 45 42 40 39 36 32 27 22 20 20 22 26
22 23 24 26 28 32 35 38 40 45 51 56 59 63 70 73 75 77 76 73 68 64 61 57 53 49 48 46 46 46 47 46 45 43 40 37 35 32 28 25 22 21 22 23
23 25 25 27 28 32 36 39 45 50 55 59 62 68 72 74 76 76 73 68 62 58 55 53 50 48 46 45 46 47 48 48 46 44 41 38 35 32 29 26 24 24 24 25
24 25 25 27 30 34 38 42 48 53 57 62 67 70 73 75 76 75 70 63 57 53 52 51 50 49 47 47 48 49 50 50 48 46 44 41 38 35 33 31 29 28 28 29
24 25 27 28 31 34 39 45 51 55 59 63 67 72 74 76 75 72 66 58 52 51 52 52 51 50 50 50 52 53 53 53 52 50 48 45 42 40 38 37 35 34 33 33
25 26 29 31 34 37 43 49 53 57 60 64 68 71 74 75 73 68 61 54 50 51 52 53 53 53 54 55 56 57 57 56 56 55 53 51 48 46 44 42 41 40 38 37
25 27 29 32 36 40 45 51 54 58 62 66 68 71 72 74 71 64 57 52 50 52 54 56 57 57 58 58 59 60 61 60 59 58 57 55 53 51 49 47 45 44 42 41
27 28 30 33 37 41 47 52 56 60 65 67 69 72 74 74 70 63 56 52 52 55 57 59 61 62 63 63 63 62 60 59 58 57 56 55 54 53 51 49 47 46 44 43
29 30 32 35 39 42 48 54 59 63 66 68 70 72 75 73 68 61 55 53 54 57 61 63 64 65 65 63 59 57 54 53 52 52 51 51 50 48 47 47 47 46 45 43
30 32 35 37 41 44 50 56 61 65 67 69 70 73 75 73 67 61 55 54 56 60 63 66 66 64 60 58 56 54 54 54 54 53 52 51 50 47 45 42 42 43 44 43
31 33 36 39 43 48 53 58 63 66 67 69 72 74 75 72 65 58 54 55 57 62 65 65 62 58 55 54 53 54 55 56 57 57 56 54 51 48 45 41 39 39 40 41
30 32 36 41 45 50 56 61 66 68 67 70 72 74 73 69 62 56 55 56 60 63 64 61 57 54 53 53 53 54 56 57 59 59 58 55 52 48 44 39 36 34 35 37
31 32 37 42 48 54 58 63 67 68 68 71 72 73 72 67 61 57 56 58 61 62 59 55 52 51 51 52 54 56 57 58 59 59 58 56 53 49 45 40 35 31 30 30
35 36 39 44 50 56 61 66 68 67 69 70 71 72 70 63 58 57 57 59 61 59 55 52 50 51 52 54 56 58 59 60 61 61 59 57 53 50 46 43 37 32 28 26
37 39 42 47 53 58 63 66 67 67 68 69 71 71 66 60 56 56 58 59 58 54 51 49 49 51 53 55 58 60 61 62 63 62 60 56 53 50 47 44 40 35 30 27
37 39 42 48 53 59 64 67 67 67 67 68 70 69 63 57 54 57 58 58 55 51 48 48 49 52 55 57 59 61 62 63 64 63 60 56 53 51 48 45 42 38 33 29
39 39 43 49 56 61 65 68 67 66 66 68 69 66 60 55 55 57 58 55 51 48 46 47 50 53 55 57 59 62 64 65 64 62 60 58 55 52 50 47 43 39 35 30
40 42 45 50 57 62 66 67 67 65 66 68 67 63 57 55 56 57 56 53 48 45 45 47 51 53 55 57 60 63 65 65 62 61 60 60 59 57 53 49 45 40 35 32
40 43 47 51 58 63 66 67 66 64 65 66 66 61 57 55 56 56 54 50 45 43 45 48 51 53 54 56 60 64 65 64 61 59 60 62 62 61 57 52 45 41 36 31
Wind_Direction
53 36 16 360 346 338 336 336 338 339 339 337 335 333 332 328 325 321 318 314 311 309 307 305 303 302 300 299 297 294 290 285 280 276 273 270 269 268 267 266 265 263 262 260
19 359 342 330 326 327 329 329 329 329 331 330 328 326 325 323 320 317 313 310 308 307 305 304 303 301 300 298 295 293 289 285 281 276 272 269 266 264 263 262 262 263 263 262
334 327 322 322 326 331 332 330 326 324 323 323 322 322 322 320 318 315 313 310 308 306 304 304 303 302 299 297 295 294 293 292 289 285 280 275 270 267 265 262 260 259 259 259
317 312 314 320 328 331 330 325 321 319 319 321 321 319 319 320 318 315 314 312 311 310 309 308 306 304 302 300 299 299 300 299 298 296 293 288 282 276 272 268 265 264 262 260
314 313 316 321 324 325 323 322 320 319 318 319 319 319 320 320 318 316 315 315 314 313 312 311 309 308 306 306 307 308 309 308 307 306 303 299 294 288 282 277 271 267 266 264
317 318 319 320 321 321 322 322 321 319 317 319 321 321 321 320 319 318 318 318 318 317 315 314 313 312 312 314 315 316 317 317 316 315 314 311 307 300 292 283 275 270 266 264
317 320 321 321 321 321 323 323 320 319 321 323 322 321 321 321 320 320 321 321 321 320 318 317 316 317 318 320 321 323 324 325 325 324 323 321 319 314 306 292 277 267 261 260
315 318 320 321 321 321 321 322 323 324 324 323 323 323 322 321 321 323 323 324 323 322 322 322 322 322 323 325 326 327 329 330 330 330 328 327 325 322 315 305 290 277 267 263
313 314 317 320 321 322 322 324 325 325 325 325 324 324 322 323 324 325 326 326 325 326 327 327 326 324 325 327 328 330 331 332 332 331 329 328 325 320 315 306 297 289 282 277
313 314 318 321 322 323 326 328 328 329 327 325 325 325 324 325 326 328 328 328 328 330 331 330 328 326 325 326 327 328 329 330 329 328 326 325 322 319 314 306 297 292 289 286
314 316 321 324 327 329 330 331 330 329 328 326 325 326 325 326 329 330 329 330 331 333 335 334 331 329 326 324 323 323 324 324 323 322 321 318 315 312 309 303 297 291 286 284
317 319 322 326 328 331 332 333 332 331 329 327 325 326 327 329 331 330 330 330 331 334 335 335 333 330 327 323 320 318 317 317 316 315 314 312 309 305 302 298 294 290 286 284
320 322 324 326 329 333 335 334 333 331 328 327 327 328 329 331 331 330 329 329 331 334 335 334 332 329 326 323 320 317 315 313 311 310 308 306 303 300 297 294 291 289 286 284
321 322 325 328 331 334 334 333 332 331 329 328 329 329 330 332 332 331 329 328 331 334 334 333 331 329 327 325 322 320 317 314 312 309 306 303 299 296 293 290 288 286 284 282
321 322 324 327 329 333 334 332 332 332 332 330 330 331 331 333 334 333 331 329 331 333 333 332 331 330 329 327 325 324 322 320 318 315 311 307 302 297 292 288 284 281 280 278
319 320 323 327 329 333 334 334 335 334 333 331 332 332 333 335 335 334 332 330 332 333 332 332 332 331 331 332 334 335 335 334 332 329 325 320 314 306 297 289 283 278 275 274
321 322 324 328 331 335 336 336 336 335 334 333 334 333 335 336 336 336 333 332 333 333 332 333 333 334 337 339 341 342 342 342 341 339 335 331 326 320 310 298 286 277 271 269
323 323 326 330 333 338 337 337 337 336 335 334 334 335 337 337 338 337 334 334 334 333 333 334 336 339 342 344 345 346 346 346 346 345 343 340 335 328 322 314 301 286 273 265
324 326 329 332 335 336 338 338 337 336 335 335 335 336 337 338 339 338 337 337 335 334 335 337 341 344 346 347 348 347 347 346 346 345 344 342 340 336 331 324 314 302 288 273
326 328 331 333 335 337 338 338 337 335 335 336 336 337 338 340 341 341 340 338 337 336 338 341 344 347 349 349 349 349 347 346 346 345 344 343 342 341 338 334 327 316 303 288
326 329 332 334 336 338 339 338 336 335 336 336 337 338 340 341 342 341 340 339 338 339 341 344 347 349 350 351 351 350 349 348 347 346 345 344 344 343 341 339 335 327 317 303
327 329 332 334 337 338 338 336 336 335 336 336 338 340 342 343 343 342 340 339 339 341 344 347 349 350 351 351 351 350 350 349 348 347 346 346 344 343 343 341 338 333 326 316
325 329 331 333 335 336 337 336 336 335 336 337 338 341 343 343 343 342 341 340 341 344 346 349 351 351 352 351 351 351 351 350 350 349 349 348 347 344 342 340 338 335 329 321
321 326 329 331 334 336 336 336 335 335 336 337 340 342 344 344 344 343 342 342 344 346 349 351 352 353 352 352 352 352 352 352 352 353 353 352 351 348 343 339 336 333 329 323
319 323 326 330 333 334 335 335 335 335 336 338 341 343 344 345 345 344 343 344 346 349 351 353 353 354 354 354 354 354 354 355 356 357 357 357 355 351 347 342 337 332 328 322
316 320 325 329 331 333 334 335 335 335 336 339 342 344 345 345 345 345 345 347 349 352 353 354 354 355 356 356 357 357 356 357 358 359 360 359 358 355 350 346 340 334 328 323
Height
5852 5851 5849 5848 5847 5846 5844 5841 5839 5836 5833 5829 5825 5820 5816 5811 5805 5798 5791 5782 5774 5765 5755 5745 5735 5725 5714 5704 5695 5686 5678 5670 5663 5658 5653 5650 5647 5644 5642 5640 5638 5637 5638 5639
5853 5851 5850 5849 5847 5845 5843 5840 5836 5833 5830 5826 5821 5816 5811 5805 5798 5790 5781 5772 5763 5753 5742 5730 5719 5707 5695 5683 5671 5660 5649 5641 5634 5628 5624 5621 5619 5617 5616 5616 5615 5614 5614 5615
5853 5852 5849 5847 5845 5842 5840 5837 5834 5830 5826 5822 5816 5810 5804 5797 5789 5780 5770 5760 5749 5737 5726 5714 5700 5687 5673 5658 5644 5631 5619 5610 5602 5597 5593 5590 5588 5587 5586 5586 5588 5588 5589 5591
5853 5850 5848 5846 5843 5840 5838 5835 5831 5826 5821 5816 5810 5803 5797 5789 5779 5769 5758 5746 5734 5721 5707 5692 5678 5663 5649 5634 5621 5608 5596 5586 5576 5567 5561 5556 5554 5554 5554 5556 5559 5561 5562 5565
5851 5849 5847 5844 5841 5838 5835 5832 5827 5822 5816 5810 5803 5795 5789 5780 5768 5757 5745 5732 5718 5703 5688 5672 5656 5641 5626 5613 5601 5591 5580 5569 5559 5549 5539 5532 5526 5523 5522 5524 5529 5534 5537 5539
5849 5847 5845 5842 5839 5836 5832 5829 5823 5818 5811 5805 5796 5787 5778 5767 5755 5743 5730 5716 5701 5686 5670 5654 5638 5623 5610 5599 5588 5578 5569 5558 5548 5537 5528 5519 5511 5506 5502 5501 5503 5508 5513 5516
5847 5845 5843 5840 5837 5833 5830 5825 5820 5813 5805 5798 5789 5778 5769 5756 5742 5729 5715 5701 5685 5669 5653 5638 5624 5612 5601 5590 5580 5570 5560 5550 5540 5530 5520 5511 5504 5498 5493 5490 5490 5492 5495 5499
5844 5843 5840 5837 5834 5830 5825 5820 5814 5806 5799 5792 5782 5771 5760 5746 5731 5717 5702 5686 5670 5654 5639 5624 5611 5601 5591 5581 5572 5562 5552 5543 5533 5524 5516 5507 5500 5494 5489 5486 5485 5485 5487 5489
5841 5839 5837 5834 5830 5826 5820 5813 5807 5800 5792 5783 5773 5762 5749 5734 5720 5705 5690 5674 5657 5643 5628 5615 5603 5592 5583 5574 5564 5554 5545 5536 5527 5519 5512 5504 5497 5491 5486 5483 5481 5480 5479 5480
5838 5836 5833 5830 5826 5821 5815 5808 5801 5792 5782 5772 5762 5751 5737 5722 5709 5694 5678 5663 5648 5634 5620 5607 5595 5585 5575 5567 5557 5548 5539 5530 5522 5514 5506 5500 5493 5488 5483 5479 5476 5474 5472 5471
5835 5832 5829 5825 5820 5816 5810 5803 5794 5785 5773 5761 5749 5743 5726 5711 5696 5681 5666 5651 5637 5625 5612 5600 5588 5577 5568 5559 5550 5541 5532 5524 5516 5508 5500 5494 5488 5482 5477 5473 5470 5467 5465 5463
5832 5828 5825 5822 5817 5811 5805 5797 5788 5779 5767 5754 5741 5732 5713 5698 5683 5667 5653 5640 5628 5616 5604 5593 5582 5571 5561 5552 5543 5533 5524 5515 5506 5498 5491 5484 5479 5473 5468 5464 5460 5457 5454 5452
5828 5825 5821 5817 5814 5807 5799 5790 5781 5771 5760 5747 5734 5724 5703 5687 5672 5656 5642 5631 5620 5610 5598 5587 5575 5564 5554 5544 5533 5523 5512 5503 5494 5486 5478 5471 5465 5460 5455 5451 5448 5445 5442 5439
5824 5821 5817 5813 5806 5801 5794 5785 5775 5764 5752 5739 5726 5713 5697 5681 5666 5651 5637 5624 5613 5603 5591 5580 5568 5557 5545 5534 5522 5511 5499 5489 5479 5470 5462 5455 5449 5443 5439 5435 5432 5429 5427 5425
5820 5817 5812 5808 5802 5796 5789 5779 5768 5756 5743 5730 5717 5702 5687 5672 5656 5642 5628 5617 5607 5596 5585 5572 5560 5548 5536 5523 5511 5498 5486 5475 5464 5454 5445 5437 5430 5424 5420 5417 5414 5412 5410 5409
5816 5812 5808 5804 5798 5791 5783 5772 5760 5748 5735 5722 5708 5694 5678 5662 5646 5632 5620 5610 5601 5589 5577 5564 5551 5538 5524 5511 5499 5487 5475 5464 5452 5441 5431 5421 5412 5405 5400 5397 5394 5393 5392 5392
5812 5807 5802 5797 5791 5785 5776 5764 5752 5740 5726 5713 5700 5687 5669 5654 5639 5625 5613 5603 5592 5581 5568 5555 5541 5527 5514 5501 5490 5478 5467 5456 5445 5433 5421 5410 5400 5391 5383 5378 5375 5373 5373 5374
5807 5802 5797 5792 5786 5777 5772 5757 5744 5731 5718 5704 5690 5676 5660 5644 5630 5617 5606 5596 5585 5573 5560 5546 5532 5519 5507 5495 5484 5473 5462 5450 5438 5426 5414 5402 5390 5380 5371 5363 5358 5355 5355 5355
5803 5798 5792 5786 5778 5772 5762 5749 5736 5724 5712 5698 5683 5669 5654 5638 5625 5613 5601 5589 5577 5565 5551 5538 5525 5514 5502 5491 5480 5469 5457 5445 5433 5420 5408 5395 5383 5371 5361 5353 5346 5342 5339 5339
5799 5795 5789 5780 5772 5764 5756 5742 5728 5716 5704 5690 5675 5661 5646 5631 5619 5608 5594 5583 5570 5557 5544 5532 5520 5509 5499 5488 5476 5465 5453 5440 5428 5415 5401 5388 5376 5364 5354 5345 5337 5331 5327 5325
5794 5789 5783 5775 5766 5758 5747 5734 5721 5709 5698 5681 5668 5653 5638 5623 5610 5599 5587 5575 5563 5550 5539 5527 5517 5506 5496 5484 5473 5461 5448 5435 5422 5408 5394 5381 5369 5358 5348 5338 5330 5323 5318 5314
5789 5783 5776 5769 5760 5753 5741 5728 5716 5703 5688 5675 5662 5647 5631 5617 5605 5594 5582 5570 5558 5546 5535 5524 5514 5503 5493 5481 5470 5457 5444 5430 5416 5402 5388 5375 5363 5352 5342 5332 5323 5316 5310 5306
5785 5780 5773 5766 5759 5747 5734 5722 5709 5696 5683 5670 5656 5641 5627 5614 5602 5591 5579 5566 5554 5543 5532 5522 5512 5501 5490 5478 5466 5454 5440 5426 5412 5397 5383 5370 5357 5346 5336 5327 5318 5310 5303 5298
5779 5774 5768 5759 5750 5740 5728 5716 5703 5690 5677 5664 5650 5635 5622 5610 5598 5586 5574 5562 5550 5540 5530 5521 5511 5500 5488 5476 5463 5450 5437 5422 5407 5393 5379 5365 5353 5342 5330 5320 5311 5303 5296 5290
5773 5767 5761 5753 5744 5734 5722 5710 5697 5684 5671 5658 5644 5630 5617 5605 5594 5582 5570 5558 5548 5538 5529 5519 5509 5498 5486 5474 5461 5448 5434 5419 5405 5391 5377 5363 5350 5337 5325 5313 5302 5294 5287 5280
5769 5763 5756 5748 5739 5729 5717 5704 5691 5678 5666 5653 5640 5625 5613 5601 5590 5578 5567 5555 5545 5536 5527 5518 5507 5496 5485 5473 5460 5446 5431 5417 5403 5389 5376 5362 5348 5333 5319 5306 5295 5284 5277 5271